RISING 2

导读

RISING 2是由日本(JP)于2014年5月24日08:00发射的科学实验卫星,是日本空间科学研究领域的重要任务载体。该卫星主要用于开展空间环境探测与相关物理实验,旨在验证新型航天技术,积累空间科学数据,助力日本在航天技术及空间科学领域的研究发展,推动相关技术迭代与科学认知提升。

基本信息
目录编号:
39769
目录名称:
RISING 2
国际标识:
2014-029D
轨道中心:
EARTH
卫星名称:
RISING 2
卫星全名:
--
卫星状态:
在轨 (已飞行4487 天)
发射日期:
2014-05-24 UTC
国别 :
日本 (JP)
星等 :
--
轨道信息
数据来源 国际轨道数据
星历时间: 2026-09-05T04:27:52+0800
7小时前
查看轨道信息
半长轴: 6947.46km
偏心率: 0.0003079
轨道倾角: 97.644°
近地点辐角 54.940°
升交点赤经 314.887°
平近点角 305.211°
近地点: 567.183km
远地点: 571.463km
周期: 96.050分钟
每日圈数: 14.992142
详细信息
使用方式:
暂无
2D轨道图
3D轨道图
轨道高度分析图
轨道倾角分析图
轨道综合分析图
查看轨道综合分析图
交会数据列表
事件ID 空间交会对象 最接近时刻(TCA) 交会距离 交会风险概率(CRP) 交会风险指数(CRI) 操作
CDM_260906-121303-976905-562924
RISING 2 (39769)
2026-09-06T
12:13:54+0000
0.758 km
远距离
6.702226E-5 中风险 0.72
CDM_260906-134803-976906-481522
RISING 2 (39769)
2026-09-06T
13:48:16+0000
0.932 km
远距离
2.663285E-5 中风险 0.64
CDM_260907-124902-654703-976921
UNISAT (26547)
RISING 2 (39769)
2026-09-07T
12:49:43+0000
1.802 km
极远距离
3.414467E-6 低风险 0.46
CDM_260904-232403-976906-700822
RISING 2 (39769)
2026-09-04T
23:24:26+0000
1.646 km
极远距离
3.015584E-6 低风险 0.45
CDM_260907-002503-976906-339523
RISING 2 (39769)
2026-09-07T
00:25:55+0000
2.040 km
极远距离
2.742875E-6 低风险 0.44
CDM_260905-084403-976904-917725
RISING 2 (39769)
2026-09-05T
08:44:58+0000
2.193 km
极远距离
2.277333E-6 低风险 0.42
CDM_260901-101603-976904-914727
RISING 2 (39769)
2026-09-01T
10:16:15+0000
2.428 km
极远距离
1.806643E-6 低风险 0.4
CDM_260902-101903-123103-976925
RISING 2 (39769)
2026-09-02T
10:19:34+0000
2.450 km
极远距离
1.710964E-6 低风险 0.4
CDM_260905-164603-976905-593224
RISING 2 (39769)
2026-09-05T
16:46:51+0000
2.713 km
极远距离
1.509068E-6 低风险 0.39